Location: Atbuku
(36.4936°N, 30.4362°E)
Time: 03:46:03
(UTC+00:00)

Cosmos 2151 - Pass Details

Date: 11 December 2025
Orbit: 559 x 575 km, 82.5° (Epoch: 13 January)

Event Time Altitude Azimuth Distance (km) Brightness Sun altitude
Rises 15:29:16 0° 350° (N) 2,785 6.3 -9.2°
Reaches altitude 10° 15:31:27 10° 349° (NNW) 1,885 5.4 -9.7°
Maximum altitude 15:35:36 72° 265° (W) 607 3.2 -10.4°
Drops below altitude 10° 15:39:43 10° 181° (S) 1,876 5.8 -11.2°
Sets 15:41:54 0° 179° (S) 2,771 6.7 -11.6°
